Wind_Speed
31 31 30 30 30 29 29 28 28 28 28 28 28 28 28 28 28 28 28 29 29 29 29 29 29 29 29 29 30 31 31 32 33 33 33 33 33 33 32 32 32 32 31 31 29 28 26 25 25 25 26 26 26 26 26 26 28 29 29 29 27 26 25 24 24 24 24 24 25 27 27 26 24 22 22 23 25 26 27 28 27 26 25 25 25 25
32 31 30 30 29 29 29 28 28 28 28 28 27 27 27 27 27 27 27 27 27 27 27 27 27 27 27 28 28 28 29 30 30 31 31 31 31 30 30 30 30 30 30 29 27 26 24 24 24 24 25 26 26 26 26 27 27 27 27 27 26 26 25 24 24 24 24 25 27 28 28 26 23 21 21 22 24 26 28 29 28 27 25 24 24 25
32 32 31 30 29 29 29 28 28 28 28 28 27 27 26 26 26 26 25 25 25 25 25 25 25 25 25 25 25 26 27 27 28 28 29 28 28 28 28 28 28 28 28 27 25 24 23 23 23 24 25 25 26 27 27 27 27 27 27 26 26 26 25 24 24 24 25 26 28 29 28 25 22 21 20 22 23 26 28 29 29 28 26 24 24 24
33 32 32 31 30 30 29 29 28 28 28 27 27 26 26 26 25 25 24 24 23 23 23 23 23 23 23 24 24 24 25 26 26 26 26 26 26 26 26 26 26 26 26 25 25 24 24 24 23 23 24 25 27 27 28 28 27 27 27 26 26 26 25 24 24 24 26 27 29 29 27 24 22 21 21 22 24 26 28 29 29 28 26 25 24 24
34 33 33 32 31 30 30 30 29 29 28 27 27 26 26 26 25 24 24 23 23 23 23 22 22 23 23 23 23 24 24 25 25 25 25 25 25 25 24 25 25 25 25 25 26 25 25 24 24 23 24 26 27 29 29 29 28 27 27 26 26 25 25 24 24 25 27 28 30 29 27 23 22 22 23 24 25 27 28 29 29 28 26 25 24 24
35 35 34 33 32 31 31 30 30 30 29 28 27 27 27 26 25 24 24 23 23 23 23 22 22 23 23 23 24 24 24 25 25 25 25 24 24 24 24 24 25 25 26 26 26 27 26 25 24 24 25 27 29 30 30 29 28 28 27 26 25 25 24 24 24 26 28 30 31 29 26 23 23 23 24 25 26 27 28 29 28 27 26 25 25 24
37 36 35 34 34 33 32 31 31 30 30 29 28 28 27 26 26 25 24 24 23 23 23 23 23 23 24 24 25 25 25 25 25 25 25 25 24 24 24 24 25 25 26 26 27 27 27 26 25 25 26 28 30 31 30 29 28 27 26 25 24 23 23 23 25 28 30 32 31 28 25 23 23 24 25 26 27 28 28 29 28 27 26 26 25 25
38 37 36 35 35 34 33 33 32 31 30 30 29 28 28 27 26 26 25 24 24 23 23 23 24 24 25 25 26 26 26 26 26 25 25 25 25 25 25 25 25 25 26 26 27 27 27 26 25 26 27 29 31 31 30 29 27 26 24 23 23 22 23 24 27 30 32 32 29 26 23 22 23 25 26 27 28 29 29 29 28 27 27 27 26 26
39 38 37 36 35 35 35 34 33 32 31 31 30 29 28 27 27 26 26 25 25 24 24 24 25 25 25 26 26 26 26 26 26 26 26 26 25 25 25 25 25 25 26 26 26 26 26 26 26 26 28 30 31 31 30 28 26 24 22 22 22 22 24 26 29 32 32 30 26 23 22 22 24 25 26 28 29 29 29 29 28 27 27 27 27 26
40 39 38 37 36 35 35 34 33 32 32 32 31 30 29 28 28 27 27 26 25 25 25 25 25 26 26 26 27 27 27 27 26 26 26 26 26 26 26 25 25 25 25 25 25 25 25 25 25 26 28 29 30 29 27 25 23 22 22 22 23 24 27 29 31 31 30 27 24 22 22 23 24 26 27 28 29 30 30 29 28 27 27 27 27 26
40 39 39 38 37 36 35 35 34 33 33 32 32 31 30 29 29 28 27 26 26 26 26 26 26 26 26 27 27 27 27 27 27 26 26 26 26 26 26 26 25 25 25 25 24 24 24 24 24 25 26 27 27 26 25 23 22 23 24 25 26 28 30 31 32 31 29 27 25 24 23 24 25 27 28 29 30 31 30 29 28 28 27 27 27 26
41 40 39 38 37 36 35 35 34 33 33 33 33 32 31 30 30 29 29 28 27 27 27 27 27 27 27 27 27 27 27 27 27 26 26 26 26 26 26 26 25 25 25 24 23 23 22 22 23 24 25 25 25 24 23 22 24 25 27 28 29 30 32 33 33 32 30 29 27 26 26 26 26 28 29 31 31 31 30 29 28 27 27 27 27 26
41 40 40 39 38 37 36 35 34 34 33 33 33 32 32 31 31 31 30 29 28 28 28 28 28 28 28 28 28 28 28 28 27 27 26 26 26 26 26 26 25 25 24 24 23 22 21 21 22 23 23 24 23 23 22 23 26 28 30 30 31 33 34 34 34 33 32 30 28 27 27 27 28 29 31 32 32 31 30 29 27 27 27 27 26 26
41 41 40 40 39 38 36 35 34 34 33 33 33 33 33 33 33 32 32 31 30 29 29 29 29 29 29 29 29 28 28 28 27 27 26 26 26 25 26 25 25 25 24 24 23 22 21 21 21 22 23 23 23 22 23 25 27 29 31 32 33 33 34 34 33 32 31 30 29 28 28 28 29 30 32 32 32 31 30 28 27 26 26 26 26 26
41 41 41 40 39 38 37 36 35 34 33 33 34 34 35 35 35 34 33 33 32 31 31 31 30 30 30 30 30 29 29 29 28 27 27 26 26 26 25 25 25 25 25 24 24 23 22 22 22 22 22 23 23 23 24 26 28 30 31 31 32 32 32 32 31 30 29 29 28 28 28 29 31 32 33 32 32 30 28 27 26 26 26 26 26 25
41 41 41 40 39 38 37 36 35 34 34 34 34 35 36 36 36 36 35 35 34 33 33 32 32 32 31 31 31 30 30 29 28 28 27 26 26 26 26 25 25 25 25 25 25 24 23 23 23 23 23 23 24 24 25 27 28 29 29 30 30 30 30 29 28 28 28 28 28 29 30 31 32 32 32 32 30 29 27 26 25 26 26 26 25 25
41 41 41 40 39 38 37 37 36 35 35 34 35 36 37 37 38 38 38 37 36 36 35 35 34 33 32 32 32 31 31 30 29 28 28 27 27 26 26 26 25 25 26 26 25 25 24 24 23 23 24 24 25 25 26 27 27 28 28 28 28 28 27 27 26 26 27 28 29 30 31 32 32 32 31 30 29 28 26 26 25 25 26 25 25 24
42 41 40 40 39 38 38 37 36 36 35 35 36 36 37 38 39 40 40 39 39 38 37 37 36 35 33 32 32 32 31 31 30 29 29 28 28 27 27 27 26 26 26 26 26 25 25 24 24 24 24 25 26 26 27 27 27 28 28 28 28 27 26 25 25 26 27 28 29 30 30 30 30 30 29 28 27 26 26 25 25 25 25 25 24 24
42 41 40 39 39 38 38 37 37 36 36 36 36 37 38 39 40 40 41 40 40 40 39 39 38 36 34 33 32 32 32 31 31 31 30 29 29 29 29 28 27 27 26 26 26 26 25 25 25 25 25 26 26 27 27 28 28 28 28 28 27 26 25 25 25 26 27 28 29 29 29 28 28 28 27 26 26 26 26 25 25 25 25 24 24 23
43 42 40 39 39 38 38 37 37 36 36 37 37 38 39 39 40 41 41 41 41 41 40 39 38 36 35 33 33 32 32 32 32 32 31 31 31 30 30 29 28 28 27 27 27 26 26 26 26 26 26 27 27 27 28 28 29 29 29 28 27 26 25 25 26 27 28 29 29 29 29 28 27 26 26 25 25 25 25 25 25 24 24 24 23 23
43 42 40 39 39 39 38 37 37 37 37 38 38 38 39 39 40 40 41 41 41 41 40 39 38 36 35 34 33 33 33 33 33 33 32 32 32 32 31 30 30 29 28 28 28 27 27 27 27 27 27 27 27 28 28 29 29 30 29 28 26 25 24 25 26 27 28 29 30 30 29 28 27 26 25 25 25 25 25 25 24 24 23 23 23 23
44 42 41 40 39 39 38 38 37 38 38 38 38 38 38 39 39 40 40 40 41 40 40 39 37 36 35 34 34 33 33 34 34 34 33 33 33 32 31 31 30 30 29 29 29 29 28 28 28 28 28 28 28 28 29 30 30 30 29 27 25 24 24 25 26 27 28 29 29 29 28 27 26 25 25 25 25 25 24 24 23 23 23 22 23 23
44 43 41 40 39 39 39 38 38 38 38 38 38 38 38 38 39 39 40 40 40 40 39 38 37 36 35 34 34 34 34 34 34 34 34 34 33 32 31 31 31 30 30 29 29 29 29 29 29 28 28 28 28 29 29 30 31 30 29 26 25 24 24 25 26 27 28 28 28 28 27 26 25 25 25 25 25 24 24 23 23 22 22 22 23 23
44 43 42 41 40 39 39 38 38 38 38 38 38 38 38 38 38 39 39 39 39 39 38 37 36 36 35 34 34 34 34 34 34 34 34 34 32 31 31 31 31 31 30 30 30 30 30 29 29 29 29 29 29 30 30 31 31 30 29 26 25 25 25 26 27 27 28 27 27 26 25 24 24 24 24 24 24 23 23 22 22 22 22 22 23 23
45 44 43 42 41 40 39 39 39 38 38 38 38 38 38 38 38 39 39 39 39 38 37 37 36 35 35 34 34 34 33 33 34 34 34 33 32 31 31 31 31 31 31 30 30 30 30 30 30 30 30 30 30 30 31 32 32 31 29 27 26 26 26 27 27 28 27 27 26 25 24 24 23 23 23 23 22 22 22 22 22 22 22 23 23 23
46 45 44 43 42 41 40 39 39 39 38 38 38 38 37 38 38 39 39 38 38 37 37 36 36 35 35 34 34 33 33 33 33 34 33 33 32 31 30 30 31 31 31 30 30 30 31 31 31 31 31 31 31 32 32 33 33 32 31 29 28 27 27 28 28 27 27 26 25 24 23 23 23 22 22 22 21 21 21 22 22 22 23 23 23 23
47 46 45 44 43 42 41 40 39 39 39 38 38 38 37 37 38 38 38 38 37 37 36 36 35 35 34 34 34 33 33 33 33 33 33 33 32 31 30 30 31 31 31 30 30 31 31 31 31 31 31 32 32 33 33 33 34 33 32 30 28 28 28 28 27 27 26 25 24 23 22 22 22 21 21 21 21 21 22 22 22 22 23 23 22 22
47 47 46 45 44 43 42 41 40 39 39 39 38 38 38 38 38 38 38 37 36 36 36 36 35 35 35 34 33 33 33 33 33 33 33 33 32 31 30 30 30 31 31 30 31 31 32 32 32 32 32 32 33 33 33 34 33 32 31 29 28 28 28 27 27 26 25 24 24 23 22 21 21 21 21 21 21 22 22 22 22 22 22 22 21 21
48 47 46 46 45 44 43 42 41 40 39 39 38 38 38 38 38 38 37 36 36 36 36 36 35 35 35 34 34 34 34 33 33 33 33 33 32 31 30 30 30 30 30 30 31 31 32 32 32 32 32 32 32 33 33 33 32 31 30 29 28 28 28 27 26 26 25 24 23 22 22 21 21 21 21 22 22 22 22 22 22 22 21 21 21 21
48 47 47 46 46 45 44 43 42 41 40 39 39 39 39 38 38 37 37 37 36 36 36 36 36 36 35 35 35 34 34 33 33 33 33 33 32 31 30 30 29 30 30 30 31 31 32 32 31 31 31 31 31 32 31 31 30 29 28 28 28 28 27 27 26 26 25 23 23 22 21 21 21 21 21 22 22 22 22 22 22 21 21 20 20 20
48 47 47 47 46 45 45 44 43 42 41 40 40 39 39 39 38 38 37 37 37 36 36 36 36 36 36 36 35 35 34 33 33 33 33 33 32 31 30 30 29 29 30 30 30 31 31 31 31 30 30 30 30 30 30 29 29 28 28 28 28 27 27 27 26 26 24 23 22 22 21 21 21 21 22 22 22 22 22 22 22 21 21 21 21 21
48 48 48 47 46 46 45 45 44 43 42 41 40 40 39 39 38 38 38 37 37 37 37 37 37 37 36 36 36 35 34 32 32 33 33 33 33 32 31 30 29 29 30 30 30 31 31 30 30 30 29 29 29 29 29 29 28 28 28 28 28 28 28 27 27 25 24 23 22 22 22 21 21 22 22 22 22 22 22 22 22 21 21 21 21 21
48 48 48 47 47 46 46 45 45 44 43 41 40 40 39 39 39 38 38 37 37 38 38 37 37 37 37 37 36 35 34 33 33 33 34 34 34 33 32 31 30 30 30 30 31 31 31 31 30 30 30 29 29 29 29 29 29 29 29 29 28 28 28 28 26 25 23 23 22 22 22 21 22 22 22 23 23 22 22 22 21 21 21 20 20 20
48 48 47 47 47 47 46 46 45 44 43 42 41 40 39 39 39 38 38 38 38 38 38 38 37 37 37 37 37 36 35 35 34 35 35 35 34 33 32 31 31 30 31 31 32 32 32 31 31 31 30 30 30 30 30 30 30 30 30 29 29 29 28 27 26 24 23 23 22 22 22 22 22 22 23 23 23 22 22 22 21 21 20 20 20 20
48 48 47 47 47 47 47 46 46 45 44 42 41 40 39 39 39 39 39 39 39 38 38 38 37 37 37 37 37 37 36 36 36 36 37 36 35 34 33 32 31 31 31 32 32 33 33 32 32 31 31 31 31 31 31 31 31 31 30 30 29 29 28 27 25 24 23 23 22 22 22 22 23 23 23 23 23 22 22 22 21 20 20 20 20 21
47 47 47 47 46 46 46 46 46 45 44 42 41 39 39 39 39 39 40 40 40 39 39 38 38 38 38 38 38 38 37 37 37 38 38 37 37 35 34 33 32 32 32 33 33 33 34 33 33 32 32 32 32 32 32 32 31 31 30 30 30 29 28 26 24 24 23 23 23 22 23 23 23 23 23 23 23 22 22 21 21 20 20 20 21 21
47 47 47 46 46 46 46 46 46 45 44 42 40 39 38 38 39 40 40 41 41 40 39 39 38 37 38 38 38 39 39 39 39 39 39 39 37 36 34 33 32 32 32 33 33 34 34 34 34 33 33 33 33 33 33 32 32 31 30 30 29 28 27 25 24 24 24 23 23 23 24 24 24 24 23 23 22 22 21 21 21 20 20 21 21 21
47 47 46 46 45 45 45 45 45 44 43 41 40 38 38 38 39 40 41 42 42 42 41 39 38 37 38 38 39 40 40 40 40 40 40 39 38 36 35 33 32 32 32 32 33 33 33 34 34 33 33 33 33 33 33 32 32 31 30 30 29 28 26 25 25 24 24 24 24 25 25 25 24 24 23 23 22 21 21 20 20 20 20 20 20 20
47 46 46 45 44 44 44 44 43 43 42 40 39 38 37 38 39 40 41 42 43 43 42 40 39 38 37 38 39 40 41 41 41 41 40 39 38 36 34 33 32 31 31 31 32 32 32 32 32 32 32 31 31 32 32 32 31 31 31 30 29 27 26 25 25 25 25 25 25 25 25 25 24 24 23 22 22 21 20 20 20 19 19 19 19 19
46 46 45 44 43 43 42 42 42 41 40 40 39 38 37 37 38 39 40 42 43 43 43 41 39 38 38 38 39 40 41 42 42 42 40 39 37 36 34 33 31 31 31 31 31 31 31 31 31 30 30 30 30 30 31 31 31 31 31 29 27 26 26 26 26 26 26 26 26 25 25 25 24 23 23 22 21 21 20 20 20 19 19 19 19 19
44 45 44 43 42 41 40 40 40 40 39 39 38 37 36 36 37 38 40 41 43 43 43 42 40 39 39 39 39 40 41 42 42 41 40 38 37 35 34 32 31 30 31 31 31 31 31 30 30 30 29 29 29 29 30 31 31 31 30 28 26 26 26 26 26 26 26 26 26 26 25 24 24 23 23 22 21 21 21 20 20 20 20 19 20 20
43 43 42 41 39 39 39 39 39 39 39 38 37 36 36 36 37 38 39 40 42 43 43 42 41 40 39 39 40 40 41 42 42 41 40 38 36 35 33 32 31 30 30 30 30 31 31 30 30 29 29 28 29 29 30 31 31 30 29 27 26 27 27 27 27 27 26 26 26 25 25 24 24 23 23 22 22 22 21 21 20 20 20 20 21 21
41 40 39 38 38 37 37 37 38 38 38 37 36 35 35 36 37 37 38 39 40 41 42 42 41 40 39 39 40 40 41 41 42 41 40 38 36 34 33 31 30 30 29 30 30 30 30 30 30 29 29 29 29 30 31 31 30 29 27 27 27 27 27 27 27 26 26 26 26 25 25 24 24 23 23 23 22 22 21 21 21 21 21 21 22 22
39 38 37 37 37 36 36 36 36 37 36 35 35 35 35 36 37 38 38 38 39 40 41 41 40 39 39 39 39 40 41 41 41 41 40 38 36 35 33 31 30 29 29 29 30 30 31 30 30 29 29 30 30 31 31 30 29 27 26 27 27 27 27 27 27 26 26 26 26 25 25 24 24 24 24 23 23 22 21 21 21 21 22 22 22 23
38 37 37 37 36 35 35 35 35 35 35 34 34 35 35 37 38 38 38 38 38 39 40 40 39 39 39 39 39 40 41 41 41 41 40 38 36 35 33 32 30 29 29 29 30 31 31 31 30 30 30 31 31 31 31 29 28 27 27 27 27 27 27 28 27 27 26 26 26 25 25 25 24 24 23 23 22 22 22 21 22 22 22 23 23 23
38 38 38 37 35 34 33 33 33 33 34 34 34 35 36 37 38 38 38 38 38 38 39 39 39 39 38 38 39 39 40 41 41 41 40 38 36 35 34 32 30 29 29 29 30 30 31 31 31 31 32 32 32 31 30 28 27 27 27 28 28 28 28 28 28 28 27 26 26 25 25 25 24 24 23 22 22 22 22 22 22 22 23 23 23 23
39 38 37 36 34 33 32 32 33 33 33 34 34 35 36 38 39 39 39 38 38 38 39 39 39 39 38 38 38 39 40 41 41 41 39 38 37 36 34 32 31 30 30 30 30 30 31 31 31 32 33 33 32 31 29 28 27 28 28 29 29 28 28 28 28 27 27 26 26 25 25 25 24 23 23 23 22 22 22 22 22 23 23 23 23 23
39 38 36 35 33 32 31 32 32 33 34 34 35 36 37 38 39 39 39 38 38 38 39 39 40 39 39 38 38 39 40 41 40 40 39 38 37 36 35 33 32 30 30 30 30 31 31 32 32 32 32 32 31 30 29 28 28 29 29 29 29 29 28 28 28 27 27 26 26 25 25 24 23 23 23 23 23 23 23 22 23 23 23 23 22 22
39 37 36 34 33 32 32 32 33 34 34 35 35 36 37 38 39 39 39 38 38 38 39 39 40 40 39 39 39 39 40 40 40 39 38 37 37 36 35 34 33 31 30 30 31 31 32 32 33 33 32 31 30 29 29 30 30 30 30 30 29 29 28 28 28 27 26 26 25 25 24 24 23 23 23 23 23 23 23 23 23 22 22 22 22 22
39 37 36 35 34 33 33 32 33 34 35 35 36 37 38 39 39 39 39 38 38 38 39 39 40 40 40 40 40 39 39 39 39 39 38 38 37 37 36 34 33 32 31 31 32 32 33 33 33 33 32 31 30 29 30 30 31 31 31 30 30 29 29 28 28 27 26 26 25 25 24 24 24 24 23 23 23 23 23 22 22 22 22 22 22 21
38 37 36 35 35 34 33 33 34 34 36 36 37 38 38 39 39 39 38 38 38 38 38 39 40 40 40 40 39 38 38 38 38 38 38 37 37 37 36 34 33 32 32 32 33 33 33 33 32 32 31 30 30 30 30 31 31 31 31 30 30 29 29 28 27 27 26 25 25 24 24 24 24 23 23 23 23 23 22 22 22 22 22 22 21 21
Wind_Direction
269 269 269 268 269 269 269 269 270 271 272 273 274 275 275 276 276 275 275 274 274 274 274 275 275 275 275 274 274 274 275 275 276 275 274 272 270 267 265 263 262 260 259 259 258 258 258 258 258 258 258 260 261 262 262 261 261 262 263 264 264 263 262 261 260 260 261 262 264 265 264 258 251 246 247 253 259 265 268 270 270 269 268 269 270 270
269 269 269 269 269 269 270 271 271 272 273 274 275 276 277 277 276 276 276 275 275 275 275 275 275 275 275 275 276 276 277 278 279 278 276 273 270 266 264 262 262 261 260 260 259 259 259 260 260 260 259 260 262 263 263 262 262 261 262 262 262 261 260 260 260 261 262 264 267 268 267 262 254 248 249 253 259 264 267 269 270 268 266 266 267 268
268 269 269 270 270 270 271 272 273 273 274 275 276 277 277 277 276 276 275 275 275 275 275 275 275 275 275 276 277 278 278 279 279 278 277 274 270 267 264 263 262 262 261 260 259 258 258 259 259 259 259 260 261 262 262 262 261 261 261 260 260 259 258 258 258 259 262 265 269 270 269 264 258 254 255 258 262 266 269 270 270 269 266 264 265 266
268 269 269 270 270 271 272 273 273 274 275 276 276 276 276 275 275 274 274 274 274 274 274 275 275 275 275 276 276 277 277 277 277 277 275 274 271 268 266 264 263 262 260 258 257 257 256 256 256 256 257 259 261 261 261 261 261 260 259 258 257 256 255 255 255 258 261 265 268 269 268 263 259 258 260 263 266 269 271 272 272 270 267 264 264 265
268 268 269 269 270 270 271 272 272 273 274 274 274 273 273 272 272 272 272 272 272 272 273 273 273 274 275 275 275 275 275 275 274 274 274 273 271 270 268 265 263 261 259 258 257 256 256 255 255 255 256 258 260 261 261 261 260 258 257 255 254 253 252 252 254 257 260 263 266 267 264 260 257 257 260 264 267 270 272 273 272 270 267 264 264 265
267 267 267 267 268 268 269 270 271 271 272 272 271 270 270 270 270 269 269 269 269 270 271 271 272 273 274 274 274 273 273 273 273 273 273 272 271 270 269 267 265 263 261 260 259 258 257 256 256 255 256 258 260 261 261 261 259 257 255 253 252 251 250 252 254 257 260 262 264 263 260 256 255 256 259 263 267 269 271 271 270 268 265 264 263 264
267 267 266 267 267 267 267 268 268 269 269 269 268 268 267 267 267 267 266 266 267 268 269 270 272 272 273 273 273 273 272 272 272 272 271 271 271 270 269 268 267 266 265 264 263 262 260 259 257 256 256 258 260 261 262 261 259 256 254 252 251 251 251 253 255 257 259 261 261 260 257 254 253 256 259 264 267 269 270 270 269 267 264 262 262 262
268 268 267 267 267 267 266 266 266 267 267 266 265 265 264 265 265 264 264 264 265 266 268 269 270 271 272 272 272 272 272 272 271 271 271 271 270 270 269 268 268 268 267 266 265 264 262 260 258 256 256 258 260 262 262 261 258 256 254 254 253 254 254 256 257 258 259 259 259 258 255 254 254 257 261 264 267 268 269 269 268 266 264 262 261 261
270 269 269 268 267 267 266 265 265 265 265 264 263 262 262 262 262 262 263 263 264 265 266 267 268 269 270 271 271 272 271 271 271 271 271 270 269 269 268 268 268 267 267 266 265 264 262 260 258 256 256 257 260 261 261 260 258 257 258 258 259 259 260 259 259 259 259 259 259 258 256 255 256 259 262 264 266 267 268 267 267 265 263 262 261 260
271 271 270 269 268 267 266 265 264 263 263 262 261 261 260 260 260 260 260 261 262 264 264 265 266 268 269 270 270 271 271 271 271 271 270 270 269 268 267 266 266 266 265 264 263 262 260 259 257 256 256 258 259 260 260 259 259 259 261 263 263 263 263 262 262 262 262 263 263 262 260 258 259 260 262 264 265 266 267 266 265 264 262 261 260 260
271 270 270 269 268 266 265 265 264 263 261 261 260 260 259 258 258 258 258 259 260 262 264 265 266 267 268 269 270 271 271 272 271 271 270 269 268 267 265 264 264 263 262 261 260 259 258 257 257 257 258 259 259 259 259 258 258 258 259 260 261 262 263 264 265 266 268 269 269 267 264 261 261 261 262 264 265 265 266 265 264 262 261 260 260 260
270 270 269 269 268 266 265 265 264 262 261 259 258 258 257 256 256 256 257 257 258 260 262 264 266 267 268 269 270 270 271 271 271 271 270 269 267 266 264 263 262 260 259 258 256 256 255 256 256 257 258 259 259 258 256 256 256 256 256 257 258 260 262 264 267 269 270 271 270 268 265 262 261 261 262 263 264 264 265 264 263 261 260 259 260 260
268 268 268 268 267 266 265 264 263 262 260 259 257 256 255 254 254 254 255 256 257 258 260 263 265 267 268 269 269 270 270 271 271 271 270 268 267 265 263 261 260 258 256 255 254 253 253 254 254 255 256 257 256 254 253 252 253 254 254 256 257 259 261 263 266 267 268 268 267 265 263 261 260 261 261 262 263 264 264 263 261 260 259 259 259 260
267 267 267 267 267 266 265 264 263 261 260 258 256 255 254 253 252 253 254 256 257 258 260 262 264 266 268 268 269 269 269 270 270 270 269 268 266 264 262 260 258 256 254 252 252 251 251 251 252 252 253 253 253 251 249 249 250 251 253 255 256 258 260 262 263 264 265 264 263 261 260 259 259 260 261 261 262 263 263 262 260 259 258 259 259 259
266 266 266 266 266 266 265 264 263 262 260 258 256 254 253 252 252 253 254 255 257 258 260 262 264 266 267 268 268 268 268 269 269 269 268 267 265 263 261 259 256 254 253 251 250 250 250 249 249 249 249 250 250 249 248 248 249 250 252 254 256 257 259 261 262 262 262 261 260 259 258 258 259 259 260 261 262 263 262 260 259 258 258 258 259 258
265 265 265 265 265 265 265 264 263 262 260 258 256 254 253 253 252 253 254 255 257 258 260 262 264 265 266 267 267 267 267 267 267 267 266 265 263 261 259 258 256 254 253 252 251 250 249 248 247 247 247 247 247 248 248 249 250 252 253 255 256 257 259 260 261 261 260 260 259 258 257 257 258 259 260 261 262 262 261 259 257 256 257 257 257 256
264 264 265 265 265 265 265 264 264 262 261 259 257 255 254 253 253 253 254 255 257 259 261 263 265 266 266 266 267 266 266 266 266 265 264 263 261 259 258 257 256 255 254 253 252 251 250 248 247 246 245 246 246 248 249 251 253 254 255 256 257 258 259 260 260 260 260 259 258 257 256 256 257 259 261 262 262 261 259 257 255 255 255 255 255 253
264 264 264 265 265 265 265 264 264 263 262 260 258 257 255 254 254 254 255 256 257 259 261 263 265 266 266 265 265 265 265 265 264 263 262 260 259 257 256 255 255 254 254 253 253 252 251 249 247 246 245 246 247 248 251 253 254 256 256 257 257 258 258 259 259 260 260 259 257 256 256 257 259 261 262 262 261 259 257 255 253 253 253 252 251 249
263 263 264 265 265 265 265 264 264 263 262 261 259 257 256 255 255 255 255 256 258 260 262 264 265 266 265 264 263 263 262 262 262 261 260 259 257 256 255 254 253 253 253 253 253 252 252 250 248 246 246 246 248 250 252 254 255 256 256 256 257 257 258 258 258 259 259 259 259 259 260 261 262 263 263 261 259 256 254 253 252 252 251 249 247 244
263 263 263 264 265 265 264 264 264 263 262 260 259 258 257 256 256 256 256 257 258 259 261 263 264 265 264 262 261 260 260 259 259 259 258 257 256 255 255 253 252 251 251 251 252 252 251 250 248 247 247 248 249 251 253 255 256 256 255 255 256 257 258 258 258 259 260 261 262 263 265 266 266 264 262 259 256 254 252 251 250 249 248 245 243 240
263 263 263 264 264 265 264 264 263 262 261 260 259 258 257 257 257 257 257 258 258 259 260 262 263 263 262 260 258 257 257 257 258 258 257 257 256 255 254 253 251 250 250 250 251 251 250 249 248 248 248 249 250 252 254 255 255 254 253 254 255 257 259 259 259 260 261 262 264 265 266 266 265 262 259 256 253 252 251 250 248 247 244 241 239 236
263 262 262 263 263 264 264 263 262 261 260 260 259 258 257 257 257 257 257 258 258 258 259 260 260 260 258 257 256 255 255 255 256 257 257 256 256 255 254 253 251 249 249 249 250 250 250 250 249 249 249 250 251 252 253 253 253 252 251 253 255 258 260 261 261 262 262 264 265 266 266 264 262 259 255 253 251 250 249 247 246 243 241 238 235 233
262 262 262 262 262 262 262 262 262 261 260 259 258 258 257 257 256 256 256 257 257 257 257 258 258 257 256 255 254 253 253 254 255 256 257 257 256 255 254 253 251 250 250 250 250 250 251 250 250 250 250 250 251 251 252 251 250 250 250 253 256 259 261 262 263 263 264 265 265 265 263 261 258 255 253 251 249 248 246 244 242 240 237 234 232 230
261 261 261 261 261 261 261 261 261 260 259 259 258 257 256 256 256 255 255 255 255 256 256 256 256 255 254 254 253 253 253 254 255 256 257 257 257 256 255 254 253 252 251 251 251 251 251 251 251 250 250 250 250 250 250 249 249 249 251 255 258 260 262 263 263 264 265 266 265 263 261 258 255 252 250 249 247 245 243 241 238 236 234 232 230 229
260 260 260 259 259 259 259 260 260 259 259 258 257 256 256 255 255 254 254 254 254 255 255 255 254 254 253 253 252 252 253 254 255 256 256 257 257 256 255 254 254 254 253 252 252 251 251 251 251 250 250 249 249 249 248 248 249 251 254 257 260 261 262 262 264 265 266 266 264 262 258 255 252 250 248 246 244 242 240 238 235 233 231 229 228 227
259 259 259 259 258 258 258 258 258 258 258 257 256 256 255 255 254 254 253 253 253 254 254 254 253 253 253 252 252 252 253 253 254 255 256 256 256 255 255 254 255 255 254 253 252 251 251 250 250 250 249 248 248 248 248 248 250 252 255 258 259 260 260 262 263 265 265 265 263 260 256 253 250 247 245 243 241 239 237 235 233 231 229 228 227 226
258 258 258 258 257 257 257 257 257 257 257 256 256 255 254 253 253 253 253 253 253 253 253 253 252 252 252 252 252 252 252 253 254 254 255 255 255 254 254 253 254 254 254 253 252 251 250 250 249 249 248 248 248 247 248 249 250 253 255 257 258 258 259 261 263 264 264 263 261 257 253 250 246 243 241 239 237 235 234 232 231 229 228 226 226 225
257 257 257 257 256 256 256 256 256 256 256 256 255 254 253 252 251 252 252 252 252 252 252 252 252 252 251 251 251 251 251 252 252 253 253 253 253 252 252 252 252 252 252 252 251 250 250 249 249 248 248 248 247 247 248 249 250 252 253 254 255 256 258 260 262 263 263 261 258 254 250 246 242 239 237 235 233 232 231 230 229 227 227 225 225 224
255 256 256 256 256 255 255 255 255 255 256 255 254 253 251 250 249 250 251 251 251 251 251 251 251 251 250 250 250 250 250 251 251 252 252 252 251 251 250 250 250 250 250 250 250 249 249 249 248 248 248 247 247 247 248 248 249 250 251 251 253 254 257 259 261 261 260 258 254 250 246 241 238 235 233 232 231 231 229 228 226 225 224 223 223 223
254 254 254 254 254 254 254 254 254 254 254 254 253 252 250 249 247 247 248 249 249 250 250 250 250 250 250 249 249 249 249 250 251 251 251 251 250 250 249 249 249 249 249 249 249 248 248 248 248 248 247 247 246 246 247 247 247 247 247 249 251 253 256 258 260 259 258 254 250 246 241 237 234 232 231 231 230 229 228 226 224 222 220 220 220 220
252 252 252 252 252 252 252 252 252 252 253 253 252 251 250 248 246 245 245 246 247 248 249 250 250 249 249 248 248 249 249 250 250 250 250 249 248 248 247 247 247 247 248 248 248 248 248 248 248 247 246 246 245 245 245 244 244 244 245 247 250 253 256 258 258 257 254 250 246 241 237 234 231 231 230 230 229 228 226 223 221 218 216 215 216 216
250 250 250 250 250 250 251 251 251 251 251 251 251 250 249 247 245 243 243 243 245 247 248 249 249 248 248 248 248 249 249 249 248 248 248 247 246 246 245 245 245 245 246 247 247 247 247 247 246 246 245 244 243 243 243 242 242 242 244 246 249 252 255 256 256 254 250 246 241 237 233 231 229 229 229 228 227 226 223 221 218 215 213 212 213 214
249 249 249 249 248 249 249 249 249 250 250 250 250 250 249 247 244 242 241 241 243 246 248 248 248 248 247 248 248 248 248 247 246 246 245 245 244 243 243 243 243 244 245 245 246 246 246 246 245 244 243 242 242 241 241 241 241 242 243 246 249 252 254 255 254 250 245 241 237 233 230 228 228 228 227 226 225 223 220 218 215 213 212 212 212 214
249 248 248 247 247 247 247 248 248 248 249 249 249 249 248 246 244 241 239 239 241 244 247 248 248 247 246 246 247 247 247 246 245 244 244 243 242 242 242 241 242 242 243 244 246 246 246 246 244 243 242 241 241 240 240 240 240 241 243 245 248 251 252 252 250 245 240 236 233 230 228 227 226 226 225 223 221 219 217 215 213 212 212 213 215 217
249 248 247 247 246 246 246 247 247 247 248 248 248 248 247 246 244 241 239 238 240 242 245 247 247 246 245 245 245 245 246 245 244 243 243 242 241 241 240 240 241 242 242 244 245 246 246 246 245 243 241 240 239 239 239 239 240 241 242 244 247 249 250 248 245 240 235 232 229 227 226 225 225 224 222 219 217 215 214 213 213 214 215 217 220 223
249 248 247 246 246 245 245 246 246 246 247 247 247 247 246 245 243 241 238 238 239 242 245 246 246 245 244 243 243 244 244 244 243 242 242 241 240 240 239 240 241 241 242 243 244 245 246 246 245 244 242 240 239 239 239 240 240 240 242 244 246 247 247 243 239 234 231 228 226 225 224 223 222 220 217 215 213 213 213 214 216 218 221 223 225 227
250 249 248 247 246 245 245 245 245 246 246 246 246 246 245 244 243 241 238 237 238 241 245 246 246 244 243 243 243 243 243 243 242 242 241 241 240 239 239 240 241 242 243 243 244 245 246 246 246 244 243 241 239 239 239 240 240 240 241 243 244 244 242 237 232 229 227 225 223 222 222 221 219 216 214 212 212 213 215 218 221 224 226 228 229 229
251 250 249 248 247 246 245 245 245 245 246 246 246 245 245 244 243 241 239 237 238 240 244 246 246 245 243 242 242 242 242 242 242 242 241 240 239 239 239 240 241 242 243 244 245 245 246 246 245 244 243 241 240 239 239 239 239 239 240 241 241 240 236 231 227 225 223 222 221 220 220 218 216 213 212 212 213 215 218 222 226 228 229 230 230 229
253 252 251 249 248 248 247 246 246 245 246 245 245 245 244 243 243 241 239 237 238 240 243 245 246 245 244 243 242 242 242 242 242 241 240 239 238 238 238 239 241 242 244 244 245 245 245 245 245 244 242 241 239 238 237 237 237 238 239 239 237 234 230 226 223 222 221 220 219 218 217 215 213 212 212 213 215 218 221 224 227 229 230 230 230 229
255 254 252 251 251 250 249 248 247 246 245 245 244 244 243 243 243 242 240 238 238 239 242 245 246 246 244 243 242 241 241 242 242 241 239 238 237 237 237 238 240 241 242 243 244 244 244 243 243 242 240 239 237 236 235 235 235 236 237 235 232 228 225 222 221 220 219 218 217 216 214 213 212 212 213 215 217 220 223 225 227 229 229 229 229 229
257 256 255 254 253 252 251 249 247 246 245 244 244 243 243 243 243 243 241 239 238 239 241 244 245 245 244 243 242 241 241 241 241 240 239 237 236 235 236 237 239 240 241 242 242 242 241 241 240 238 237 235 234 233 233 233 234 234 233 230 226 223 221 219 218 217 217 216 215 213 212 211 211 212 214 217 220 222 224 226 227 228 229 229 230 230
257 258 258 257 257 255 253 250 247 245 244 243 243 242 242 243 244 244 243 241 239 239 241 243 245 245 244 243 242 241 241 241 241 240 238 236 235 235 235 236 238 239 240 241 241 240 239 237 236 235 233 232 232 232 232 232 232 231 228 224 220 218 217 217 216 215 214 213 212 211 211 211 211 214 216 219 222 224 225 226 227 228 230 231 232 233
256 258 259 259 258 256 254 251 248 246 244 242 241 241 241 242 243 244 243 241 240 239 240 242 244 244 243 242 241 241 241 241 241 240 238 236 235 234 235 235 237 238 239 239 239 238 237 234 232 231 230 230 231 232 232 231 229 226 222 218 216 216 216 215 214 213 212 211 210 210 210 211 213 216 219 222 224 226 226 227 228 230 232 233 235 236
252 255 257 258 257 256 254 252 249 246 243 241 239 239 239 241 242 243 243 241 240 239 240 241 243 243 242 240 240 240 240 241 240 240 238 236 235 234 234 235 236 237 238 238 237 235 234 232 229 228 229 230 231 231 230 228 225 220 217 215 214 214 214 213 212 211 210 209 209 210 211 213 216 219 222 224 226 227 228 229 231 233 235 237 238 239
248 251 254 255 256 255 254 252 249 246 242 239 237 237 238 240 241 242 242 240 239 239 239 241 242 242 240 239 239 239 240 240 239 239 238 236 235 234 234 235 235 236 236 236 235 233 231 229 228 228 229 230 230 229 227 223 219 215 213 213 212 212 211 210 210 209 208 208 209 210 213 215 219 221 224 225 226 228 229 231 233 235 238 240 241 242
244 247 250 252 253 253 252 250 248 245 241 238 236 236 238 240 241 241 241 239 238 238 238 240 241 240 239 238 238 238 238 238 238 238 237 236 235 234 234 234 234 235 235 234 233 231 229 227 227 228 229 229 228 226 222 217 213 211 211 211 211 210 209 209 208 208 207 208 209 212 215 218 221 223 224 225 227 229 231 233 236 238 240 241 242 241
242 245 248 250 250 250 249 247 245 242 239 236 235 236 238 240 241 241 241 239 237 237 237 238 239 240 239 239 238 238 238 237 237 237 236 236 234 234 233 233 233 233 233 232 231 229 227 227 227 228 229 228 225 220 215 211 209 209 210 210 209 208 207 207 207 208 208 210 212 215 218 220 222 223 224 226 228 231 233 236 238 240 241 241 240 237
240 243 246 248 249 248 247 245 242 240 237 235 234 236 238 240 241 241 240 239 237 236 236 236 238 239 239 239 239 239 238 237 237 236 236 235 235 234 234 233 232 231 231 230 228 226 225 226 227 228 227 224 219 213 209 206 206 207 208 207 206 205 205 205 206 208 210 213 215 218 220 221 222 223 225 228 231 234 236 238 239 240 240 238 235 232
239 242 244 246 247 247 246 244 241 238 235 233 233 235 238 240 241 241 240 239 237 235 235 235 236 238 239 239 239 239 238 237 237 237 237 236 236 235 234 232 230 228 227 226 225 224 224 225 225 226 224 220 214 208 206 205 205 205 205 204 203 203 203 204 206 209 212 215 218 220 221 222 223 225 227 230 234 237 239 240 239 238 236 233 229 225
238 240 242 243 244 245 245 243 240 236 233 232 232 234 237 240 241 242 241 239 237 235 234 235 235 237 238 239 239 239 238 238 238 238 238 238 238 236 234 230 227 225 224 223 223 224 224 225 224 223 220 215 209 206 205 205 204 203 202 201 200 201 203 205 208 211 214 216 219 220 221 222 224 227 230 234 237 239 240 239 238 235 231 227 223 220
238 239 239 240 241 242 244 243 239 235 231 230 231 233 237 240 242 242 241 239 237 236 235 235 235 236 237 238 239 239 239 238 238 238 239 239 238 236 233 228 224 222 222 222 223 224 225 224 221 217 214 210 205 203 205 205 204 202 200 199 200 202 205 208 211 214 216 218 219 220 221 224 227 231 234 237 239 239 239 237 234 229 225 221 219 217
Height
3046 3047 3047 3047 3047 3047 3047 3047 3047 3047 3046 3047 3047 3047 3046 3046 3046 3047 3047 3047 3047 3046 3046 3046 3046 3046 3046 3046 3046 3046 3046 3046 3046 3046 3046 3047 3047 3047 3048 3048 3049 3049 3050 3050 3050 3050 3051 3051 3051 3051 3052 3052 3053 3053 3054 3054 3055 3055 3055 3055 3056 3056 3056 3056 3056 3056 3057 3057 3057 3057 3057 3057 3058 3058 3058 3059 3059 3059 3058 3058 3058 3057 3058 3058 3058 3059
3044 3044 3044 3044 3044 3044 3044 3044 3044 3044 3044 3044 3044 3044 3044 3044 3044 3044 3044 3044 3044 3044 3044 3044 3044 3044 3044 3044 3044 3044 3043 3043 3043 3044 3044 3044 3045 3045 3045 3046 3046 3047 3047 3047 3047 3048 3048 3049 3049 3050 3050 3051 3051 3051 3051 3052 3052 3052 3053 3053 3053 3054 3054 3054 3054 3055 3055 3055 3055 3055 3055 3055 3055 3055 3056 3056 3056 3056 3056 3056 3056 3056 3056 3056 3056 3056
3041 3041 3041 3041 3041 3041 3041 3041 3041 3041 3041 3041 3041 3041 3041 3041 3041 3041 3042 3041 3041 3041 3041 3041 3041 3041 3041 3041 3041 3041 3041 3041 3041 3041 3042 3042 3042 3043 3043 3043 3044 3044 3044 3045 3045 3046 3046 3046 3047 3047 3048 3048 3049 3049 3049 3049 3050 3050 3050 3051 3051 3051 3052 3052 3052 3053 3053 3053 3053 3053 3053 3053 3053 3053 3053 3054 3054 3054 3054 3054 3054 3054 3054 3054 3054 3055
3038 3038 3038 3038 3039 3038 3038 3038 3038 3038 3038 3038 3038 3039 3039 3039 3039 3039 3039 3039 3039 3039 3039 3039 3039 3039 3039 3039 3039 3039 3039 3039 3039 3040 3040 3040 3041 3041 3041 3041 3042 3042 3042 3043 3043 3043 3044 3044 3045 3045 3046 3046 3046 3046 3046 3047 3047 3047 3048 3048 3049 3049 3050 3050 3050 3051 3051 3051 3051 3051 3051 3051 3051 3051 3051 3051 3052 3052 3052 3052 3052 3052 3052 3052 3052 3052
3035 3035 3035 3036 3036 3036 3036 3036 3036 3036 3036 3036 3036 3036 3036 3036 3036 3037 3037 3037 3037 3037 3037 3037 3037 3037 3037 3037 3037 3037 3037 3037 3037 3037 3038 3038 3039 3039 3039 3040 3040 3040 3041 3041 3041 3041 3041 3042 3042 3043 3044 3044 3044 3044 3044 3044 3045 3045 3046 3046 3046 3047 3047 3048 3048 3049 3049 3049 3049 3049 3049 3049 3049 3049 3049 3049 3050 3050 3050 3050 3050 3050 3050 3050 3050 3050
3032 3032 3032 3032 3033 3033 3033 3033 3033 3033 3033 3033 3033 3034 3034 3034 3034 3034 3035 3035 3035 3035 3035 3035 3035 3035 3035 3035 3035 3035 3035 3035 3035 3036 3036 3036 3037 3037 3037 3038 3038 3038 3039 3039 3039 3039 3040 3040 3040 3041 3041 3042 3042 3042 3042 3042 3042 3043 3043 3044 3044 3045 3045 3046 3046 3046 3046 3046 3046 3047 3047 3047 3047 3047 3047 3047 3048 3048 3048 3048 3048 3048 3048 3048 3048 3048
3028 3029 3029 3030 3030 3030 3031 3031 3031 3031 3031 3031 3031 3031 3031 3031 3032 3032 3032 3032 3032 3032 3032 3032 3032 3032 3032 3033 3033 3033 3033 3033 3033 3033 3034 3034 3035 3035 3035 3035 3036 3036 3036 3036 3037 3037 3037 3037 3038 3039 3039 3039 3039 3039 3039 3040 3040 3041 3041 3041 3042 3042 3043 3043 3044 3044 3044 3044 3044 3044 3044 3045 3045 3045 3045 3045 3045 3046 3046 3046 3046 3046 3046 3046 3046 3046
3025 3025 3026 3026 3027 3027 3027 3028 3028 3028 3028 3028 3028 3028 3029 3029 3029 3030 3030 3030 3030 3030 3030 3030 3030 3030 3031 3031 3031 3031 3031 3031 3031 3031 3031 3032 3032 3032 3032 3033 3033 3033 3034 3034 3034 3035 3035 3035 3036 3036 3037 3037 3037 3037 3037 3038 3038 3039 3039 3039 3040 3040 3041 3041 3041 3042 3042 3041 3041 3042 3042 3042 3042 3043 3043 3043 3043 3043 3043 3044 3044 3044 3044 3044 3044 3044
3021 3022 3022 3023 3024 3024 3024 3025 3026 3026 3026 3026 3026 3026 3026 3026 3027 3027 3027 3027 3027 3028 3028 3028 3028 3028 3028 3028 3028 3028 3028 3029 3029 3029 3029 3029 3030 3030 3030 3030 3031 3031 3031 3031 3032 3032 3032 3033 3034 3034 3035 3035 3035 3035 3035 3036 3036 3036 3037 3037 3038 3038 3039 3039 3039 3039 3039 3039 3039 3039 3040 3040 3040 3041 3041 3041 3041 3041 3041 3041 3041 3041 3041 3041 3042 3042
3018 3019 3019 3020 3021 3021 3021 3022 3023 3023 3023 3023 3023 3023 3024 3024 3024 3024 3025 3025 3025 3025 3025 3025 3025 3026 3026 3026 3026 3026 3026 3026 3027 3027 3027 3027 3027 3027 3027 3028 3028 3028 3029 3029 3029 3030 3030 3031 3031 3032 3032 3032 3032 3033 3033 3034 3034 3034 3035 3035 3036 3036 3037 3037 3037 3037 3036 3036 3037 3037 3037 3038 3038 3038 3039 3039 3039 3039 3039 3039 3039 3039 3039 3039 3039 3040
3015 3016 3016 3016 3017 3018 3018 3019 3020 3021 3021 3021 3021 3021 3021 3021 3022 3022 3022 3022 3022 3022 3022 3022 3022 3023 3023 3023 3023 3024 3024 3024 3024 3025 3025 3025 3025 3025 3025 3025 3026 3026 3026 3027 3027 3027 3028 3028 3029 3029 3030 3030 3030 3031 3031 3031 3032 3032 3033 3033 3034 3034 3035 3035 3034 3034 3034 3034 3035 3035 3035 3036 3036 3036 3036 3037 3037 3037 3037 3037 3037 3037 3037 3037 3037 3037
3012 3012 3013 3013 3014 3014 3015 3016 3017 3017 3018 3018 3018 3018 3019 3019 3019 3019 3019 3019 3020 3020 3020 3019 3020 3020 3021 3021 3021 3021 3021 3022 3022 3022 3023 3023 3023 3023 3023 3023 3024 3024 3024 3025 3025 3025 3026 3026 3026 3027 3027 3028 3028 3029 3029 3029 3030 3030 3031 3031 3032 3032 3032 3032 3032 3032 3032 3032 3032 3033 3033 3033 3034 3034 3034 3035 3035 3035 3035 3035 3035 3035 3035 3035 3035 3036
3009 3009 3009 3010 3010 3011 3012 3013 3014 3014 3015 3015 3016 3016 3016 3016 3016 3016 3016 3016 3017 3017 3017 3017 3017 3018 3018 3018 3019 3019 3019 3020 3020 3020 3021 3021 3021 3021 3021 3021 3021 3022 3022 3022 3022 3023 3023 3024 3024 3025 3025 3026 3026 3026 3027 3027 3028 3028 3029 3029 3029 3029 3030 3030 3030 3030 3030 3030 3030 3031 3031 3031 3031 3032 3032 3032 3032 3032 3032 3032 3032 3032 3033 3033 3033 3033
3006 3006 3006 3006 3007 3008 3009 3010 3011 3011 3012 3013 3013 3013 3013 3013 3013 3013 3013 3013 3014 3014 3014 3014 3015 3015 3015 3016 3016 3016 3017 3017 3018 3018 3018 3019 3019 3019 3019 3019 3019 3020 3020 3020 3020 3021 3021 3021 3022 3023 3023 3023 3024 3024 3025 3025 3026 3026 3026 3026 3027 3027 3027 3027 3027 3027 3028 3028 3028 3028 3029 3029 3029 3030 3030 3030 3030 3030 3030 3030 3030 3030 3031 3031 3031 3031
3002 3002 3002 3003 3004 3005 3006 3007 3007 3008 3009 3010 3010 3010 3010 3010 3010 3010 3010 3011 3011 3011 3011 3011 3012 3012 3013 3013 3014 3014 3014 3015 3015 3016 3016 3016 3016 3016 3017 3017 3017 3017 3018 3018 3018 3018 3019 3019 3020 3020 3021 3021 3021 3022 3022 3023 3023 3023 3024 3024 3024 3024 3025 3025 3025 3025 3025 3026 3026 3026 3026 3027 3027 3027 3027 3027 3027 3028 3028 3028 3028 3028 3028 3029 3029 3030
2999 2999 2999 2999 3000 3001 3002 3003 3004 3005 3006 3006 3006 3006 3006 3006 3007 3007 3007 3007 3008 3008 3008 3009 3009 3010 3010 3011 3011 3011 3012 3012 3013 3013 3014 3014 3014 3014 3015 3015 3015 3016 3016 3016 3016 3016 3017 3017 3018 3018 3019 3019 3019 3020 3020 3020 3021 3021 3021 3021 3022 3022 3022 3022 3023 3023 3023 3024 3024 3024 3024 3025 3025 3025 3025 3025 3025 3025 3026 3026 3026 3026 3026 3027 3027 3028
2995 2995 2996 2996 2997 2998 2999 3000 3000 3001 3002 3002 3003 3003 3003 3003 3003 3003 3004 3004 3005 3005 3006 3006 3006 3007 3008 3009 3009 3009 3009 3010 3010 3011 3011 3011 3012 3012 3012 3012 3013 3013 3014 3014 3014 3014 3015 3015 3016 3016 3016 3017 3017 3017 3017 3018 3018 3018 3019 3019 3020 3020 3020 3020 3021 3021 3021 3021 3022 3022 3022 3022 3023 3023 3023 3023 3023 3023 3023 3024 3024 3024 3025 3025 3025 3026
2991 2992 2992 2993 2994 2995 2996 2996 2996 2997 2998 2998 2999 2999 2999 2999 3000 3000 3000 3001 3001 3002 3002 3003 3003 3004 3005 3006 3006 3006 3007 3007 3007 3008 3008 3009 3009 3010 3010 3010 3011 3011 3012 3012 3012 3012 3013 3013 3013 3014 3014 3014 3015 3015 3015 3015 3016 3016 3016 3017 3017 3017 3018 3018 3018 3019 3019 3019 3020 3020 3020 3020 3020 3020 3020 3020 3020 3021 3021 3021 3022 3022 3023 3023 3024 3024
2987 2988 2989 2990 2990 2991 2991 2992 2993 2994 2994 2995 2995 2995 2995 2995 2996 2996 2997 2998 2998 2999 2999 3000 3000 3001 3002 3003 3004 3004 3004 3004 3004 3005 3006 3006 3006 3007 3007 3008 3008 3009 3009 3010 3010 3011 3011 3011 3011 3011 3012 3012 3012 3012 3013 3013 3013 3014 3014 3015 3015 3015 3016 3016 3016 3016 3017 3017 3017 3017 3017 3017 3018 3018 3018 3018 3018 3018 3019 3019 3020 3020 3021 3021 3022 3023
2983 2985 2986 2986 2987 2987 2988 2989 2990 2990 2990 2991 2991 2991 2991 2992 2992 2993 2993 2994 2995 2996 2996 2996 2997 2998 3000 3000 3001 3001 3001 3001 3001 3001 3002 3003 3004 3004 3005 3005 3006 3006 3007 3007 3008 3008 3008 3009 3009 3009 3010 3010 3010 3010 3010 3011 3011 3011 3012 3012 3012 3013 3013 3014 3014 3014 3015 3015 3015 3015 3015 3015 3016 3016 3016 3016 3016 3016 3017 3017 3018 3018 3019 3020 3020 3021
2980 2981 2982 2983 2983 2983 2984 2985 2986 2986 2986 2986 2987 2987 2988 2988 2989 2989 2990 2991 2991 2992 2993 2993 2994 2995 2996 2997 2997 2998 2998 2998 2998 2999 2999 3000 3001 3001 3002 3003 3003 3003 3004 3005 3005 3006 3006 3006 3007 3007 3007 3007 3007 3008 3008 3008 3009 3009 3010 3010 3010 3011 3011 3011 3011 3012 3012 3012 3013 3013 3013 3013 3013 3013 3014 3014 3014 3015 3015 3016 3016 3016 3017 3018 3019 3020
2976 2977 2978 2979 2979 2979 2980 2981 2982 2982 2982 2983 2983 2984 2984 2985 2986 2986 2986 2987 2988 2988 2989 2990 2991 2992 2993 2993 2994 2995 2995 2995 2996 2996 2996 2997 2998 2999 3000 3000 3001 3001 3001 3002 3003 3003 3003 3004 3004 3005 3005 3005 3005 3006 3006 3006 3006 3007 3007 3008 3008 3008 3009 3009 3009 3010 3010 3010 3010 3011 3011 3011 3011 3011 3011 3012 3012 3012 3013 3014 3014 3015 3016 3016 3017 3018
2972 2973 2975 2976 2976 2976 2976 2977 2978 2978 2979 2979 2980 2980 2981 2981 2982 2982 2983 2983 2984 2985 2986 2986 2987 2988 2989 2990 2991 2992 2992 2993 2993 2993 2993 2994 2995 2996 2997 2997 2998 2998 2999 3000 3000 3001 3001 3001 3002 3002 3003 3003 3003 3003 3004 3004 3004 3005 3005 3005 3006 3006 3006 3007 3007 3007 3007 3008 3008 3008 3008 3009 3009 3009 3010 3010 3010 3011 3011 3012 3012 3013 3014 3015 3016 3017
2968 2969 2971 2971 2972 2973 2973 2973 2974 2974 2975 2976 2976 2977 2977 2978 2978 2979 2979 2980 2980 2981 2982 2983 2984 2985 2986 2987 2988 2989 2990 2990 2991 2991 2991 2991 2992 2993 2994 2995 2995 2996 2996 2997 2998 2998 2999 2999 2999 3000 3000 3001 3001 3001 3001 3001 3002 3002 3002 3003 3003 3004 3004 3005 3005 3005 3005 3006 3006 3006 3006 3006 3007 3007 3007 3008 3008 3009 3010 3010 3011 3012 3012 3013 3014 3015
2965 2966 2967 2968 2968 2969 2969 2970 2970 2971 2971 2972 2973 2973 2974 2975 2975 2975 2976 2976 2977 2978 2979 2980 2981 2982 2983 2984 2985 2986 2987 2988 2988 2988 2988 2989 2990 2991 2991 2992 2992 2993 2993 2994 2995 2996 2996 2996 2997 2997 2998 2998 2998 2999 2999 2999 3000 3000 3000 3001 3001 3002 3002 3002 3003 3003 3003 3003 3003 3004 3004 3004 3005 3005 3006 3006 3006 3007 3008 3009 3009 3010 3011 3012 3013 3014
2961 2962 2963 2964 2964 2965 2966 2966 2966 2967 2967 2968 2969 2970 2971 2971 2971 2971 2972 2973 2974 2975 2976 2977 2978 2979 2980 2981 2982 2983 2985 2985 2985 2985 2986 2986 2987 2988 2989 2989 2990 2990 2991 2991 2992 2993 2993 2994 2994 2995 2995 2996 2996 2996 2997 2997 2997 2998 2998 2998 2999 3000 3000 3000 3001 3001 3001 3001 3001 3002 3002 3002 3003 3003 3004 3004 3005 3006 3006 3007 3008 3009 3010 3011 3011 3012
2956 2957 2958 2959 2960 2961 2962 2962 2963 2963 2964 2964 2965 2966 2967 2967 2968 2968 2968 2969 2971 2972 2973 2973 2975 2976 2977 2978 2980 2981 2981 2982 2982 2983 2983 2983 2984 2985 2986 2987 2987 2987 2988 2989 2990 2990 2991 2991 2991 2992 2992 2993 2993 2994 2994 2995 2995 2995 2996 2996 2997 2997 2998 2998 2998 2998 2999 2999 2999 3000 3000 3001 3001 3001 3002 3003 3003 3004 3005 3006 3007 3007 3008 3009 3010 3011
2952 2953 2954 2955 2956 2957 2958 2959 2959 2960 2960 2961 2961 2962 2963 2964 2964 2964 2965 2966 2968 2969 2969 2970 2971 2973 2974 2975 2977 2978 2978 2979 2980 2980 2981 2981 2981 2982 2983 2984 2984 2985 2985 2986 2986 2987 2987 2988 2988 2989 2990 2990 2991 2991 2991 2992 2992 2993 2994 2994 2995 2995 2996 2996 2996 2996 2996 2997 2997 2998 2998 2999 2999 3000 3001 3001 3002 3003 3004 3005 3005 3006 3007 3008 3009 3010
2948 2949 2950 2951 2952 2953 2954 2955 2955 2956 2956 2957 2958 2958 2959 2960 2961 2961 2962 2964 2965 2966 2966 2967 2969 2970 2971 2972 2974 2975 2975 2976 2977 2977 2978 2977 2978 2979 2981 2981 2981 2982 2982 2983 2984 2984 2984 2985 2986 2986 2987 2987 2988 2988 2989 2989 2990 2991 2991 2992 2992 2993 2993 2994 2994 2994 2995 2995 2996 2996 2996 2997 2997 2998 2999 3000 3001 3001 3002 3003 3004 3005 3006 3006 3007 3008
2943 2944 2945 2946 2947 2948 2950 2951 2951 2952 2953 2953 2954 2954 2955 2956 2957 2958 2959 2961 2961 2962 2963 2965 2966 2967 2968 2969 2970 2971 2972 2974 2975 2975 2975 2975 2975 2976 2978 2978 2978 2979 2980 2980 2981 2981 2981 2982 2983 2984 2984 2985 2985 2986 2986 2987 2988 2988 2989 2990 2990 2991 2991 2991 2992 2992 2993 2993 2994 2994 2995 2995 2996 2997 2997 2998 2999 3000 3001 3001 3002 3003 3004 3005 3006 3007
2939 2940 2941 2941 2943 2944 2945 2946 2947 2948 2949 2950 2950 2951 2951 2952 2953 2955 2956 2957 2958 2959 2961 2962 2963 2964 2965 2966 2967 2968 2970 2971 2972 2972 2972 2972 2972 2973 2975 2975 2976 2976 2977 2977 2978 2978 2979 2979 2980 2981 2982 2982 2983 2983 2984 2985 2985 2986 2987 2987 2988 2988 2989 2989 2990 2990 2991 2991 2992 2992 2993 2994 2994 2995 2996 2997 2998 2999 2999 3000 3001 3002 3002 3003 3004 3006
2934 2935 2936 2937 2938 2939 2941 2941 2942 2944 2945 2946 2946 2947 2948 2949 2950 2951 2953 2954 2956 2956 2958 2959 2960 2961 2961 2963 2964 2965 2967 2969 2969 2969 2969 2969 2969 2970 2971 2972 2973 2973 2974 2974 2975 2975 2976 2977 2977 2978 2979 2980 2980 2981 2982 2982 2983 2984 2985 2985 2986 2986 2987 2987 2987 2988 2989 2989 2990 2991 2991 2992 2993 2994 2995 2996 2996 2997 2998 2999 3000 3000 3001 3002 3003 3004
2929 2930 2931 2932 2933 2935 2936 2937 2938 2939 2941 2941 2942 2943 2944 2945 2946 2948 2949 2951 2952 2954 2955 2956 2956 2957 2958 2960 2961 2962 2964 2966 2966 2966 2966 2966 2966 2967 2968 2969 2970 2970 2971 2971 2972 2972 2973 2974 2975 2976 2976 2977 2978 2979 2979 2980 2981 2981 2982 2983 2984 2984 2985 2985 2986 2986 2987 2987 2988 2989 2990 2991 2991 2992 2993 2994 2995 2996 2997 2997 2998 2999 3000 3001 3001 3003
2924 2925 2926 2927 2929 2930 2931 2932 2934 2935 2936 2937 2939 2940 2941 2942 2943 2945 2946 2948 2949 2951 2952 2952 2953 2954 2955 2956 2958 2959 2961 2962 2963 2963 2962 2962 2963 2964 2965 2966 2966 2967 2968 2969 2969 2970 2971 2971 2972 2973 2974 2975 2975 2976 2977 2978 2978 2979 2980 2981 2981 2982 2982 2983 2983 2984 2985 2986 2986 2987 2988 2989 2990 2991 2992 2993 2994 2995 2996 2996 2997 2998 2999 2999 3000 3001
2919 2920 2921 2923 2924 2925 2926 2928 2929 2931 2932 2934 2935 2936 2938 2939 2940 2941 2943 2944 2946 2947 2948 2949 2950 2951 2952 2953 2955 2956 2957 2959 2959 2959 2959 2959 2960 2961 2962 2962 2963 2964 2965 2966 2966 2967 2967 2969 2970 2971 2971 2972 2973 2973 2974 2975 2976 2976 2977 2978 2979 2980 2980 2981 2981 2982 2983 2984 2985 2986 2987 2988 2989 2990 2991 2991 2992 2993 2994 2995 2996 2996 2997 2998 2999 3000
2914 2915 2916 2918 2919 2921 2922 2923 2925 2926 2928 2930 2931 2933 2935 2936 2937 2938 2939 2941 2942 2944 2945 2946 2946 2947 2948 2949 2951 2952 2954 2955 2956 2956 2956 2956 2957 2958 2958 2959 2960 2961 2962 2963 2963 2964 2965 2966 2966 2967 2968 2969 2970 2971 2971 2972 2973 2974 2975 2976 2977 2977 2978 2978 2980 2981 2981 2982 2983 2984 2985 2986 2987 2988 2989 2990 2991 2992 2993 2994 2994 2995 2996 2996 2997 2998
2909 2911 2912 2913 2915 2916 2918 2919 2921 2922 2924 2926 2928 2930 2931 2932 2933 2935 2936 2937 2939 2940 2941 2942 2943 2944 2945 2946 2947 2949 2950 2951 2952 2952 2952 2953 2954 2954 2955 2956 2957 2958 2959 2960 2960 2961 2962 2963 2963 2964 2965 2966 2967 2968 2969 2970 2971 2972 2973 2974 2974 2975 2976 2976 2977 2979 2980 2981 2982 2983 2984 2985 2986 2986 2987 2989 2990 2991 2991 2992 2993 2994 2994 2995 2996 2996
2905 2906 2907 2909 2911 2912 2914 2915 2917 2919 2921 2922 2924 2926 2927 2929 2930 2931 2932 2934 2935 2937 2938 2938 2939 2940 2941 2942 2944 2945 2946 2947 2948 2948 2949 2950 2951 2951 2952 2953 2954 2955 2956 2957 2957 2958 2959 2960 2960 2961 2962 2963 2964 2965 2966 2967 2968 2969 2971 2971 2972 2972 2973 2975 2976 2977 2978 2979 2980 2981 2982 2983 2984 2985 2986 2987 2988 2989 2990 2991 2991 2992 2993 2993 2994 2995
2901 2902 2904 2905 2907 2909 2910 2912 2913 2915 2917 2919 2921 2922 2924 2925 2926 2927 2929 2930 2931 2933 2934 2935 2936 2937 2938 2939 2941 2941 2943 2943 2944 2945 2946 2946 2947 2948 2949 2950 2951 2952 2953 2954 2955 2955 2956 2957 2957 2958 2959 2961 2961 2963 2964 2965 2966 2967 2968 2968 2969 2970 2971 2973 2974 2975 2976 2977 2978 2979 2981 2981 2983 2984 2985 2986 2987 2988 2988 2989 2990 2991 2991 2992 2992 2993
2897 2898 2900 2902 2904 2905 2907 2908 2910 2912 2914 2915 2916 2918 2920 2921 2923 2924 2925 2926 2928 2929 2930 2931 2932 2934 2935 2936 2937 2938 2939 2940 2941 2941 2942 2943 2944 2945 2946 2947 2948 2949 2950 2951 2951 2952 2953 2954 2955 2956 2957 2958 2959 2960 2961 2962 2963 2964 2965 2966 2967 2968 2970 2971 2972 2973 2974 2976 2976 2978 2979 2980 2981 2982 2983 2984 2985 2986 2987 2988 2988 2989 2990 2990 2991 2992
2894 2895 2896 2898 2901 2902 2904 2905 2907 2908 2910 2911 2913 2915 2916 2918 2919 2920 2921 2923 2924 2925 2926 2928 2929 2930 2931 2932 2933 2934 2936 2936 2937 2938 2939 2940 2941 2941 2943 2944 2945 2946 2947 2948 2949 2949 2950 2951 2952 2953 2954 2955 2956 2957 2958 2960 2961 2961 2962 2963 2965 2966 2968 2969 2970 2971 2972 2974 2975 2976 2977 2979 2980 2981 2982 2983 2984 2984 2985 2986 2987 2987 2988 2989 2990 2991
2891 2891 2893 2896 2897 2899 2901 2902 2903 2904 2906 2907 2909 2911 2912 2914 2916 2916 2917 2919 2920 2921 2923 2924 2926 2926 2927 2929 2930 2931 2932 2933 2934 2935 2936 2936 2937 2938 2939 2941 2942 2943 2944 2945 2946 2946 2948 2949 2950 2951 2952 2953 2954 2955 2956 2957 2958 2959 2960 2961 2963 2964 2965 2967 2968 2970 2971 2972 2973 2975 2976 2977 2978 2979 2980 2981 2982 2982 2983 2984 2985 2986 2986 2987 2988 2989
2887 2889 2891 2892 2894 2896 2897 2898 2899 2901 2902 2904 2906 2907 2909 2911 2912 2913 2914 2915 2916 2918 2919 2921 2922 2923 2924 2925 2926 2927 2929 2930 2931 2932 2932 2933 2934 2935 2936 2937 2939 2940 2941 2942 2943 2944 2945 2946 2947 2948 2949 2950 2951 2952 2954 2955 2956 2956 2958 2960 2961 2962 2964 2965 2967 2968 2970 2971 2972 2973 2974 2976 2976 2977 2978 2979 2980 2981 2982 2983 2983 2984 2985 2986 2986 2987
2884 2886 2887 2889 2890 2892 2893 2895 2896 2897 2899 2901 2902 2904 2906 2907 2909 2909 2910 2911 2912 2914 2916 2917 2918 2919 2920 2921 2922 2924 2926 2927 2928 2928 2929 2930 2931 2932 2933 2934 2936 2936 2938 2939 2940 2941 2942 2943 2945 2946 2947 2948 2949 2950 2951 2952 2953 2955 2956 2958 2959 2961 2962 2964 2966 2967 2968 2969 2971 2971 2973 2974 2975 2976 2976 2977 2978 2979 2980 2981 2982 2982 2983 2984 2984 2985
2881 2883 2884 2885 2887 2889 2890 2891 2893 2894 2896 2897 2899 2901 2902 2904 2905 2905 2906 2907 2908 2910 2912 2913 2915 2916 2916 2917 2919 2921 2922 2923 2924 2925 2926 2927 2928 2929 2930 2931 2932 2933 2935 2936 2937 2938 2939 2941 2942 2943 2944 2945 2946 2947 2948 2950 2951 2953 2955 2956 2958 2959 2961 2962 2963 2965 2966 2967 2969 2970 2971 2972 2973 2974 2975 2976 2977 2978 2979 2979 2980 2981 2981 2982 2982 2983
2878 2879 2881 2882 2884 2886 2887 2888 2890 2891 2893 2894 2896 2897 2899 2900 2901 2901 2902 2903 2905 2906 2908 2910 2911 2911 2912 2914 2916 2917 2919 2920 2921 2921 2923 2924 2925 2926 2927 2928 2929 2931 2932 2933 2934 2935 2937 2938 2939 2940 2941 2942 2943 2945 2946 2948 2949 2951 2953 2954 2956 2957 2959 2960 2961 2963 2964 2966 2967 2968 2969 2970 2971 2972 2973 2974 2975 2976 2977 2978 2978 2979 2980 2980 2981 2981
2874 2876 2877 2879 2881 2882 2884 2886 2887 2888 2890 2891 2893 2894 2896 2897 2897 2898 2899 2900 2901 2903 2904 2906 2907 2908 2909 2911 2912 2914 2915 2916 2917 2918 2920 2921 2922 2923 2924 2925 2926 2927 2929 2930 2931 2933 2934 2936 2937 2938 2938 2940 2941 2942 2944 2946 2948 2949 2951 2952 2954 2956 2957 2958 2960 2961 2963 2964 2965 2966 2967 2968 2969 2971 2971 2972 2973 2974 2975 2976 2976 2977 2977 2978 2979 2979
2871 2872 2874 2876 2877 2879 2881 2882 2884 2885 2886 2888 2890 2891 2892 2893 2894 2894 2895 2896 2898 2899 2901 2902 2903 2905 2906 2907 2909 2911 2912 2913 2914 2916 2917 2918 2920 2921 2921 2922 2923 2925 2926 2927 2929 2930 2932 2933 2934 2935 2936 2937 2939 2940 2942 2944 2946 2948 2949 2951 2952 2954 2956 2957 2958 2960 2961 2962 2964 2965 2966 2967 2968 2969 2970 2971 2971 2972 2973 2974 2975 2975 2976 2976 2977 2978
2867 2869 2870 2872 2874 2876 2877 2879 2880 2882 2883 2885 2886 2887 2889 2890 2890 2891 2891 2893 2894 2896 2897 2899 2900 2901 2903 2904 2906 2907 2909 2910 2911 2913 2914 2915 2916 2918 2918 2919 2921 2922 2923 2925 2926 2928 2929 2930 2931 2932 2934 2935 2937 2938 2940 2942 2944 2946 2947 2949 2951 2952 2954 2955 2956 2958 2959 2961 2962 2963 2964 2965 2966 2967 2968 2969 2970 2971 2971 2972 2972 2973 2974 2974 2975 2976
2863 2865 2866 2868 2870 2872 2874 2876 2877 2878 2880 2881 2883 2884 2885 2886 2886 2887 2888 2890 2891 2892 2894 2895 2897 2898 2900 2901 2902 2904 2906 2907 2908 2910 2911 2912 2914 2915 2916 2916 2918 2919 2921 2922 2924 2925 2926 2927 2929 2930 2931 2933 2935 2937 2939 2940 2942 2943 2945 2947 2949 2950 2952 2953 2955 2956 2958 2959 2960 2961 2962 2963 2964 2965 2966 2967 2968 2968 2969 2970 2971 2971 2972 2973 2973 2974
2860 2861 2863 2865 2867 2869 2871 2872 2874 2875 2876 2878 2879 2881 2881 2882 2883 2884 2885 2886 2888 2889 2891 2892 2893 2895 2896 2898 2899 2901 2902 2904 2906 2907 2908 2910 2911 2912 2913 2914 2915 2916 2918 2919 2921 2922 2924 2925 2926 2928 2929 2931 2933 2935 2937 2939 2940 2942 2943 2945 2947 2949 2950 2951 2953 2954 2956 2957 2958 2959 2961 2961 2962 2963 2964 2965 2966 2966 2967 2968 2968 2969 2970 2971 2972 2973